When you browse on this site, cookies collect data to enhance your experience and personalize the content and advertising you see.
Visit our Privacy Policy to learn more. By continuing to use the site, you agree to this use of cookies and data.

Hourly Weather Pasca

Today, 15 July, Wednesday

Time Temperature Precipitation Wind Pressure Humidity
00:00 +13°C° 0.1 mm 2 mps 585 mmHg 80%
01:00 +13°C° 0.1 mm 2 mps 585 mmHg 81%
02:00 +12°C° 0.1 mm 2 mps 585 mmHg 82%
03:00 +12°C° 0.1 mm 2 mps 584 mmHg 82%
04:00 +12°C° 0.1 mm 2 mps 584 mmHg 82%
05:00 +13°C° 0 mm 1 mps 584 mmHg 81%
06:00 +13°C° 0 mm 1 mps 585 mmHg 80%
07:00 +14°C° 0 mm 1 mps 586 mmHg 80%
08:00 +16°C° 0.1 mm 1 mps 586 mmHg 77%
09:00 +18°C° 0.1 mm 1 mps 587 mmHg 74%
10:00 +19°C° 0.1 mm 1 mps 588 mmHg 71%
11:00 +20°C° 0.5 mm 1 mps 587 mmHg 71%
12:00 +20°C° 0.5 mm 1 mps 587 mmHg 71%
13:00 +21°C° 0.5 mm 1 mps 586 mmHg 71%
14:00 +20°C° 0.6 mm 1 mps 586 mmHg 73%
15:00 +20°C° 0.6 mm 1 mps 585 mmHg 74%
16:00 +20°C° 0.6 mm 1 mps 584 mmHg 75%
17:00 +19°C° 0.4 mm 1 mps 584 mmHg 79%
18:00 +16°C° 0.4 mm 1 mps 584 mmHg 83%
19:00 +15°C° 0.4 mm 2 mps 584 mmHg 86%
20:00 +14°C° 0.3 mm 2 mps 584 mmHg 85%
21:00 +14°C° 0.3 mm 2 mps 584 mmHg 85%
22:00 +13°C° 0.3 mm 2 mps 585 mmHg 84%
23:00 +13°C° 0.3 mm 2 mps 584 mmHg 85%

Tomorrow, 16 July, Thursday

Time Temperature Precipitation Wind Pressure Humidity
00:00 +13°C° 0.3 mm 2 mps 584 mmHg 85%
01:00 +12°C° 0.3 mm 2 mps 584 mmHg 86%
02:00 +12°C° 0.1 mm 2 mps 584 mmHg 86%
03:00 +12°C° 0.1 mm 2 mps 584 mmHg 86%
04:00 +12°C° 0.1 mm 1 mps 583 mmHg 86%
05:00 +13°C° 0 mm 1 mps 584 mmHg 86%
06:00 +14°C° 0 mm 1 mps 585 mmHg 86%
07:00 +14°C° 0 mm 1 mps 585 mmHg 86%
08:00 +16°C° 0.1 mm 1 mps 586 mmHg 81%
09:00 +18°C° 0.1 mm 1 mps 587 mmHg 77%
10:00 +20°C° 0.1 mm 1 mps 587 mmHg 73%
11:00 +20°C° 0.5 mm 1 mps 587 mmHg 74%
12:00 +20°C° 0.5 mm 1 mps 586 mmHg 75%
13:00 +20°C° 0.5 mm 2 mps 586 mmHg 76%
14:00 +20°C° 0.5 mm 1 mps 585 mmHg 78%
15:00 +20°C° 0.5 mm 1 mps 585 mmHg 79%
16:00 +19°C° 0.5 mm 1 mps 584 mmHg 81%
17:00 +18°C° 0.8 mm 1 mps 584 mmHg 83%
18:00 +16°C° 0.8 mm 1 mps 584 mmHg 85%
19:00 +15°C° 0.8 mm 2 mps 584 mmHg 87%
20:00 +15°C° 0.8 mm 2 mps 584 mmHg 88%
21:00 +14°C° 0.8 mm 2 mps 585 mmHg 88%
22:00 +14°C° 0.8 mm 2 mps 585 mmHg 88%
23:00 +14°C° 0.4 mm 2 mps 585 mmHg 89%

Day after tomorrow, 17 July, Friday

Time Temperature Precipitation Wind Pressure Humidity
00:00 +13°C° 0.4 mm 2 mps 584 mmHg 89%
01:00 +13°C° 0.4 mm 1 mps 584 mmHg 89%
02:00 +13°C° 0.1 mm 1 mps 584 mmHg 89%
03:00 +13°C° 0.1 mm 1 mps 584 mmHg 88%
04:00 +13°C° 0.1 mm 1 mps 584 mmHg 88%
05:00 +13°C° 0 mm 1 mps 584 mmHg 87%
06:00 +14°C° 0 mm 1 mps 585 mmHg 87%
07:00 +14°C° 0 mm 1 mps 585 mmHg 86%
08:00 +16°C° 0.2 mm 1 mps 586 mmHg 83%
09:00 +18°C° 0.2 mm 1 mps 587 mmHg 80%
10:00 +19°C° 0.2 mm 1 mps 588 mmHg 77%
11:00 +20°C° 0.5 mm 1 mps 587 mmHg 75%
12:00 +20°C° 0.5 mm 1 mps 587 mmHg 72%
13:00 +21°C° 0.5 mm 1 mps 586 mmHg 70%
14:00 +21°C° 0.3 mm 1 mps 586 mmHg 71%
15:00 +20°C° 0.3 mm 1 mps 585 mmHg 72%
16:00 +20°C° 0.3 mm 1 mps 585 mmHg 73%
17:00 +19°C° 0.4 mm 1 mps 584 mmHg 77%
18:00 +16°C° 0.4 mm 1 mps 584 mmHg 82%
19:00 +15°C° 0.4 mm 2 mps 584 mmHg 86%
20:00 +15°C° 0.1 mm 2 mps 584 mmHg 85%
21:00 +14°C° 0.1 mm 2 mps 585 mmHg 85%
22:00 +14°C° 0.1 mm 2 mps 585 mmHg 84%
23:00 +14°C° 0.2 mm 1 mps 585 mmHg 85%

18 July, Saturday

Time Temperature Precipitation Wind Pressure Humidity
00:00 +14°C° 0.2 mm 1 mps 585 mmHg 86%
01:00 +14°C° 0.2 mm 1 mps 584 mmHg 88%
02:00 +14°C° 0.2 mm 1 mps 584 mmHg 88%
03:00 +13°C° 0.2 mm 1 mps 584 mmHg 89%
04:00 +13°C° 0.2 mm 1 mps 584 mmHg 89%
05:00 +13°C° 0.1 mm 1 mps 584 mmHg 89%
06:00 +14°C° 0.1 mm 1 mps 585 mmHg 88%
07:00 +14°C° 0.1 mm 1 mps 585 mmHg 87%
08:00 +15°C° 0.3 mm 1 mps 586 mmHg 85%
09:00 +16°C° 0.3 mm 1 mps 586 mmHg 83%
10:00 +18°C° 0.3 mm 1 mps 587 mmHg 81%
11:00 +19°C° 0.7 mm 1 mps 587 mmHg 79%
12:00 +20°C° 0.7 mm 1 mps 586 mmHg 78%
13:00 +20°C° 0.7 mm 1 mps 586 mmHg 76%
14:00 +20°C° 0.5 mm 1 mps 585 mmHg 76%
15:00 +20°C° 0.5 mm 1 mps 585 mmHg 75%
16:00 +20°C° 0.5 mm 1 mps 584 mmHg 75%
17:00 +18°C° 0.4 mm 1 mps 584 mmHg 78%
18:00 +16°C° 0.4 mm 1 mps 584 mmHg 82%
19:00 +15°C° 0.4 mm 2 mps 584 mmHg 86%
20:00 +14°C° 0.2 mm 2 mps 584 mmHg 86%
21:00 +14°C° 0.2 mm 2 mps 585 mmHg 86%
22:00 +14°C° 0.2 mm 2 mps 585 mmHg 85%
23:00 +14°C° 0.1 mm 2 mps 585 mmHg 86%

19 July, Sunday

Time Temperature Precipitation Wind Pressure Humidity
00:00 +13°C° 0.1 mm 2 mps 584 mmHg 87%
01:00 +13°C° 0.1 mm 1 mps 584 mmHg 87%
02:00 +13°C° 0.1 mm 1 mps 584 mmHg 87%
03:00 +13°C° 0.1 mm 1 mps 584 mmHg 87%
04:00 +13°C° 0.1 mm 1 mps 583 mmHg 87%
05:00 +13°C° 0 mm 1 mps 584 mmHg 86%
06:00 +14°C° 0 mm 1 mps 584 mmHg 85%
07:00 +15°C° 0 mm 1 mps 585 mmHg 84%
08:00 +16°C° 0.1 mm 1 mps 586 mmHg 80%
09:00 +19°C° 0.1 mm 1 mps 586 mmHg 76%
10:00 +20°C° 0.1 mm 1 mps 587 mmHg 72%
11:00 +21°C° 0.4 mm 1 mps 587 mmHg 69%
12:00 +21°C° 0.4 mm 1 mps 586 mmHg 67%
13:00 +22°C° 0.4 mm 1 mps 586 mmHg 64%
14:00 +21°C° 0.5 mm 1 mps 585 mmHg 66%
15:00 +21°C° 0.5 mm 1 mps 585 mmHg 67%
16:00 +21°C° 0.5 mm 1 mps 584 mmHg 69%
17:00 +19°C° 0.3 mm 1 mps 584 mmHg 75%
18:00 +16°C° 0.3 mm 1 mps 584 mmHg 81%
19:00 +15°C° 0.3 mm 2 mps 583 mmHg 87%
20:00 +14°C° 0.2 mm 2 mps 584 mmHg 87%
21:00 +14°C° 0.2 mm 2 mps 584 mmHg 86%
22:00 +14°C° 0.2 mm 2 mps 584 mmHg 85%
23:00 +14°C° 0.4 mm 2 mps 584 mmHg 85%

20 July, Monday

Time Temperature Precipitation Wind Pressure Humidity
00:00 +14°C° 0.4 mm 1 mps 584 mmHg 85%
01:00 +14°C° 0.4 mm 1 mps 584 mmHg 85%
02:00 +14°C° 0.3 mm 1 mps 584 mmHg 86%
03:00 +14°C° 0.3 mm 1 mps 584 mmHg 86%
04:00 +14°C° 0.3 mm 1 mps 583 mmHg 87%
05:00 +14°C° 0.1 mm 1 mps 584 mmHg 87%
06:00 +14°C° 0.1 mm 1 mps 584 mmHg 87%
07:00 +13°C° 0.1 mm 0 mps 585 mmHg 87%
08:00 +14°C° 0.1 mm 0 mps 585 mmHg 86%
09:00 +14°C° 0.1 mm 0 mps 586 mmHg 86%
10:00 +15°C° 0.1 mm 0 mps 586 mmHg 85%
11:00 +16°C° 0.5 mm 0 mps 586 mmHg 84%
12:00 +16°C° 0.5 mm 0 mps 586 mmHg 83%
13:00 +19°C° 0.5 mm 1 mps 585 mmHg 82%
14:00 +19°C° 0.8 mm 1 mps 585 mmHg 81%
15:00 +19°C° 0.8 mm 1 mps 584 mmHg 80%
16:00 +19°C° 0.8 mm 1 mps 584 mmHg 79%
17:00 +18°C° 0.5 mm 1 mps 584 mmHg 82%
18:00 +16°C° 0.5 mm 1 mps 584 mmHg 84%
19:00 +15°C° 0.5 mm 1 mps 583 mmHg 86%
20:00 +15°C° 0.2 mm 1 mps 584 mmHg 85%
21:00 +14°C° 0.2 mm 2 mps 584 mmHg 85%
22:00 +14°C° 0.2 mm 2 mps 585 mmHg 84%
23:00 +14°C° 0 mm 2 mps 584 mmHg 84%
Show more